Fort Rucker / Ozark, AL

10:45 AM CST on November 18, 2017 (GMT -0600)
Fort Rucker / Ozark

Weather History for KHEY - February, 2014

Change the Weather History Date:

Sunday, February 23, 2014

  Actual Average (KOZR) Record (KOZR)
Temperature  
Mean Temperature 54 °F -  
Max Temperature 61 °F 63 °F 77 °F (2016)
Min Temperature 46 °F 42 °F 31 °F (2009)
Degree Days  
Heating Degree Days 12    
Growing Degree Days 4 (Base 50)    
Moisture  
Dew Point 54 °F    
Average Humidity 91    
Maximum Humidity 100    
Minimum Humidity 71    
Precipitation  
Precipitation 0.18 in - - ()
Sea Level Pressure  
Sea Level Pressure 30.00 in    
Wind  
Wind Speed 2 mph (South)    
Max Wind Speed 12 mph    
Max Gust Speed -    
Visibility 7 miles    
Events Fog , Rain    
Averages and records for this station are not official NWS values.
T = Trace of Precipitation, MM = Missing Value Source: NWS Daily Summary

Daily Weather History Graph

Daily Weather History Graph

Search for Another Location

Airport or City:

Trip Planner

Search our weather history database for the weather conditions in past years. The results will help you decide how hot, cold, wet, or windy it might be!

Date:

Astronomy

Feb. 23, 2014 Rise Set
Actual Time 6:16 AM CST 5:36 PM CST
Civil Twilight 5:51 AM CST 6:00 PM CST
Nautical Twilight 5:23 AM CST 6:29 PM CST
Astronomical Twilight 4:55 AM CST 6:57 PM CST
Moon 1:02 AM CST (2/23) 11:49 AM CST (2/23)
Length of Visible Light 12h 09m
Length of Day
11h 20m
Last Quarter, 38% of the Moon is Illuminated
Feb 23
Last Quarter
Mar 1
New
Mar 8
First Quarter
Mar 16
Full
Mar 23
Last Quarter

Hourly Weather History & Observations

Time (CST) Temp. Dew Point Humidity Pressure Visibility Wind Dir Wind Speed Gust Speed Precip Events Conditions
12:53 AM 46.9 °F 41.0 °F 80% 30.01 in 10.0 mi Calm Calm - N/A   Clear
1:53 AM 46.9 °F 39.0 °F 74% 29.99 in 10.0 mi Calm Calm - N/A   Clear
2:53 AM 46.0 °F 39.9 °F 79% 29.99 in 10.0 mi Calm Calm - N/A   Partly Cloudy
3:53 AM 46.9 °F 43.0 °F 86% 29.99 in 10.0 mi ESE 3.5 mph - N/A   Mostly Cloudy
4:53 AM 50.0 °F 41.0 °F 71% 29.96 in 10.0 mi North 4.6 mph - N/A   Clear
5:53 AM 51.1 °F 42.1 °F 71% 29.99 in 10.0 mi Calm Calm - N/A   Overcast
6:53 AM 51.1 °F 45.0 °F 80% 30.02 in 10.0 mi Calm Calm - 0.00 in Rain Light Rain
7:35 AM 52.0 °F 44.1 °F 74% 30.07 in 10.0 mi NNE 9.2 mph - 0.00 in Rain Light Rain
7:53 AM 51.1 °F 45.0 °F 80% 30.04 in 10.0 mi NNE 11.5 mph - 0.00 in Rain Light Rain
8:53 AM 51.1 °F 46.0 °F 83% 30.05 in 10.0 mi Calm Calm - 0.00 in   Overcast
9:09 AM 51.1 °F 46.9 °F 86% 30.09 in 10.0 mi SSE 4.6 mph - 0.00 in Rain Light Rain
9:53 AM 53.1 °F 51.1 °F 93% 30.05 in 10.0 mi Calm Calm - 0.00 in Rain Light Rain
10:26 AM 54.0 °F 52.0 °F 93% 30.08 in 7.0 mi Calm Calm - 0.02 in Rain Light Rain
10:53 AM 55.0 °F 53.1 °F 93% 30.03 in 9.0 mi NNE 5.8 mph - 0.02 in Rain Light Rain
11:14 AM 55.9 °F 54.0 °F 93% 30.05 in 10.0 mi Calm Calm - 0.00 in Rain Light Rain
11:31 AM 55.9 °F 54.0 °F 93% 30.04 in 4.0 mi East 4.6 mph - 0.02 in Rain Light Rain
11:53 AM 55.9 °F 55.0 °F 97% 30.02 in 4.0 mi Calm Calm - 0.05 in Rain Light Rain
11:57 AM 55.9 °F 55.0 °F 97% 30.06 in 1.8 mi SSW 3.5 mph - 0.01 in Rain Rain
12:13 PM 55.9 °F 55.0 °F 97% 30.05 in 3.0 mi Calm Calm - 0.04 in Rain Light Rain
12:53 PM 57.0 °F 55.9 °F 96% 30.00 in 5.0 mi Calm Calm - 0.07 in Rain Light Rain
1:53 PM 59.0 °F 57.9 °F 96% 29.96 in 7.0 mi ESE 4.6 mph - 0.02 in Rain Light Rain
2:16 PM 59.0 °F 57.9 °F 96% 29.97 in 2.0 mi South 8.1 mph - 0.01 in Rain Light Rain
2:26 PM 59.0 °F 59.0 °F 100% 29.98 in 5.0 mi Variable 4.6 mph - 0.01 in Rain Light Rain
2:53 PM 60.1 °F 59.0 °F 96% 29.95 in 9.0 mi South 3.5 mph - 0.01 in Rain Light Rain
3:42 PM 60.1 °F 59.0 °F 96% 29.98 in 10.0 mi South 5.8 mph - 0.01 in Rain Light Rain
3:53 PM 60.1 °F 59.0 °F 96% 29.95 in 10.0 mi Variable 3.5 mph - 0.01 in   Overcast
4:23 PM 60.1 °F 59.0 °F 96% 29.98 in 10.0 mi Calm Calm - 0.00 in Rain Light Rain
4:34 PM 60.1 °F 59.0 °F 96% 29.98 in 10.0 mi South 3.5 mph - 0.00 in   Overcast
4:53 PM 60.1 °F 59.0 °F 96% 29.94 in 9.0 mi Calm Calm - 0.00 in   Overcast
5:53 PM 60.1 °F 59.0 °F 96% 29.94 in 8.0 mi Calm Calm - N/A   Overcast
6:25 PM 61.0 °F 59.0 °F 93% 29.98 in 7.0 mi Calm Calm - N/A   Overcast
6:53 PM 60.1 °F 59.0 °F 96% 29.94 in 5.0 mi Calm Calm - N/A   Overcast
7:11 PM 60.1 °F 59.0 °F 96% 29.98 in 8.0 mi SW 4.6 mph - N/A   Overcast
7:53 PM 60.1 °F 59.0 °F 96% 29.96 in 7.0 mi SW 4.6 mph - N/A   Overcast
8:18 PM 60.1 °F 60.1 °F 100% 30.00 in 1.8 mi SSW 4.6 mph - N/A   Overcast
8:32 PM 60.1 °F 60.1 °F 100% 30.00 in 0.8 mi Variable 5.8 mph - N/A   Mist
8:53 PM 60.1 °F 60.1 °F 100% 29.96 in 0.5 mi SSW 4.6 mph - N/A Fog Fog
9:53 PM 60.1 °F 60.1 °F 100% 29.97 in 0.2 mi SSW 3.5 mph - N/A Fog Fog
10:53 PM 60.1 °F 60.1 °F 100% 29.99 in 0.5 mi West 3.5 mph - N/A Fog Fog
11:53 PM 61.0 °F 60.1 °F 97% 29.99 in 0.8 mi Variable 3.5 mph - 0.00 in   Mist